Location: Unspecified
(0.0000°N, 0.0000°E)
Time: 18:32:15
(UTC-05:00)

Okean 3 - Visible Passes

Search period start: 19 September 2019 00:00
Search period end: 29 September 2019 00:00
Orbit: 576 x 601 km, 82.5° (Epoch: 19 September)

Date Brightness Start Highest point End Pass type
(mag) Time Alt. Az. Time Alt. Az. Time Alt. Az.
19 Sep 5.1 23:33:42 10° SSE 23:37:31 35° E 23:41:19 10° NNE visible
20 Sep 3.9 23:41:17 10° S 23:45:24 63° E 23:49:30 10° NNE visible
21 Sep 3.3 23:49:08 10° S 23:53:17 73° W 23:57:25 10° N visible
22 Sep 3.8 23:57:14 10° SSW 00:01:09 40° W 00:05:03 10° NNW visible
23 Sep 6.7 22:31:00 10° ESE 22:32:05 11° E 22:33:10 10° ENE visible
24 Sep 4.5 00:05:41 10° SW 00:09:01 24° W 00:12:22 10° NNW visible
24 Sep 6.0 22:37:02 10° SE 22:39:58 19° E 22:42:53 10° NE visible
25 Sep 5.0 00:14:41 10° WSW 00:16:54 14° W 00:19:07 10° NW visible
25 Sep 5.2 22:48:18 30° E 22:48:18 30° E 22:51:31 10° NNE visible
26 Sep 5.9 22:59:15 13° NNE 22:59:15 13° NNE 22:59:47 10° NNE visible
